TimePDT,TemperatureF,Dew PointF,Humidity,Sea Level PressureIn,VisibilityMPH,Wind Direction,Wind SpeedMPH,Gust SpeedMPH,PrecipitationIn,Events,Conditions,WindDirDegrees,DateUTC
12:53 AM,39.9,26.1,58,30.18,10.0,South,9.2,-,N/A,,Clear,180,2013-03-14 07:53:00
1:53 AM,41.0,25.0,53,30.17,10.0,SSW,10.4,-,N/A,,Clear,200,2013-03-14 08:53:00
2:53 AM,37.9,26.1,62,30.17,10.0,South,10.4,-,N/A,,Clear,190,2013-03-14 09:53:00
3:53 AM,39.0,25.0,57,30.16,10.0,South,9.2,-,N/A,,Clear,190,2013-03-14 10:53:00
4:53 AM,36.0,25.0,64,30.18,10.0,SSE,10.4,-,N/A,,Clear,160,2013-03-14 11:53:00
5:53 AM,33.1,25.0,72,30.23,10.0,Calm,Calm,-,N/A,,Clear,0,2013-03-14 12:53:00
6:53 AM,32.0,25.0,75,30.28,10.0,South,6.9,-,N/A,,Clear,170,2013-03-14 13:53:00
7:53 AM,34.0,26.1,73,30.30,10.0,SSE,4.6,-,N/A,,Clear,150,2013-03-14 14:53:00
8:53 AM,45.0,28.9,53,30.27,10.0,SSE,4.6,-,N/A,,Clear,160,2013-03-14 15:53:00
9:53 AM,59.0,26.1,28,30.19,10.0,South,11.5,-,N/A,,Clear,190,2013-03-14 16:53:00
10:53 AM,64.0,27.0,25,30.17,10.0,SSW,10.4,-,N/A,,Clear,200,2013-03-14 17:53:00
11:53 AM,69.1,21.0,16,30.12,10.0,SE,8.1,-,N/A,,Clear,140,2013-03-14 18:53:00
12:53 PM,71.1,14.0,11,30.10,10.0,SSW,17.3,21.9,N/A,,Clear,210,2013-03-14 19:53:00
1:53 PM,-9999,-9999,N/A,30.28,-9999.0,SSW,13.8,24.2,N/A,,Clear,200,2013-03-14 20:53:00
2:53 PM,-9999,-9999,N/A,30.27,10.0,South,11.5,-,N/A,,Clear,180,2013-03-14 21:53:00
3:53 PM,69.1,18.0,14,30.09,10.0,SSW,10.4,-,N/A,,Clear,210,2013-03-14 22:53:00
4:53 PM,66.9,21.9,18,30.10,10.0,South,9.2,-,N/A,,Clear,180,2013-03-14 23:53:00
5:53 PM,64.0,21.9,20,30.12,10.0,South,11.5,-,N/A,,Clear,190,2013-03-15 00:53:00
6:53 PM,60.1,26.1,27,30.14,10.0,South,6.9,-,N/A,,Clear,170,2013-03-15 01:53:00
7:53 PM,53.1,28.0,38,30.16,10.0,South,9.2,-,N/A,,Clear,180,2013-03-15 02:53:00
8:53 PM,51.1,27.0,39,30.13,10.0,South,12.7,-,N/A,,Clear,180,2013-03-15 03:53:00
9:53 PM,50.0,26.1,39,30.08,10.0,South,11.5,-,N/A,,Clear,190,2013-03-15 04:53:00
10:53 PM,45.0,27.0,49,30.07,10.0,South,4.6,-,N/A,,Clear,170,2013-03-15 05:53:00
11:53 PM,43.0,28.0,56,30.05,10.0,SSE,6.9,-,N/A,,Clear,160,2013-03-15 06:53:00